Regional Weather Roundup
Issued by NWS Burlington, VT

Home | Current Version | Previous Version | Text Only | Print | Product List | Glossary On
Versions: 1 2 3 4 5 6 7 8 9 10 11 12 13 14 15 16 17 18 19 20 21 22 23 24 25 26 27 28 29 30 31 32 33 34 35 36 37 38 39 40 41 42 43 44 45 46 47 48 49 50
671
ASUS41 KBTV 290010
RWRBTV
VERMONT REGIONAL WEATHER ROUNDUP
NATIONAL WEATHER SERVICE BURLINGTON VT
800 PM EDT THU JUL 28 2016

NOTE: "FAIR" INDICATES FEW OR NO CLOUDS BELOW 12,000 FEET WITH NO
SIGNIFICANT WEATHER AND/OR OBSTRUCTIONS TO VISIBILITY.

* THESE REPORTS ARE NOT UNDER NWS QUALITY CONTROL AND/OR DO NOT
  REPORT WEATHER SUCH AS PRECIPITATION AND FOG.

VTZ001>019-290100-
_____VERMONT_____


CITY           SKY/WX    TMP DP  RH WIND       PRES   REMARKS
BURLINGTON     MOCLDY    73  67  81 CALM      29.90S
6HR MIN TEMP:  72; 6HR MAX TEMP:  84; 6HR PCP:  0.01;

MONTPELIER     FAIR      69  66  90 SW3       29.96S
6HR MIN TEMP:  69; 6HR MAX TEMP:  78; 6HR PCP:  0.06;

MORRISVILLE    FAIR      69  67  93 CALM      29.93S
6HR MIN TEMP:  67; 6HR MAX TEMP:  80; 6HR PCP:  0.55;

ST. JOHNSBURY*   N/A     71  67  87 MISG      29.89S
6HR MIN TEMP:  71; 6HR MAX TEMP:  85; 6HR PCP:  0.07;

LYNDONVILLE*   FAIR      68  67  96 CALM      29.95R
6HR MIN TEMP:  68; 6HR MAX TEMP:  80;

MIDDLEBURY*    FAIR      71  71 100 CALM      29.91R
6HR MIN TEMP:  71; 6HR MAX TEMP:  81;

RUTLAND*       MOCLDY    72  69  90 N3        29.92R
6HR MIN TEMP:  68; 6HR MAX TEMP:  84; 6HR PCP:  0.61;

SPRINGFIELD    FAIR      76  65  68 CALM      29.90R
6HR MIN TEMP:  76; 6HR MAX TEMP:  88;

HIGHGATE*      FAIR      71  67  87 CALM      29.89F
6HR MIN TEMP:  69; 6HR MAX TEMP:  76;

NEWPORT*       FAIR      70  66  89 CALM      29.92F
6HR MIN TEMP:  70; 6HR MAX TEMP:  78;

BENNINGTON     FAIR      68  66  93 S3        29.90S
6HR MIN TEMP:  68; 6HR MAX TEMP:  88; 6HR PCP:  0.26;

SUTTON*          N/A     64 N/A N/A MISG        N/A

_____LAKE CHAMPLAIN_____


CITY           SKY/WX    TMP DP  RH WIND       PRES   REMARKS
BURTON ISLAND*   N/A     73  66  78 S5          N/A
COLCHESTER RF*   N/A     73  68  83 NW3         N/A
DIAMOND ISL*     N/A     72  70  94 N1          N/A

$$

NYZ007-026>031-035-052-083-087-290100-
_____NORTHERN NEW YORK_____


CITY           SKY/WX    TMP DP  RH WIND       PRES   REMARKS
PLATTSBURGH    CLOUDY    71  69  93 CALM      29.89S
6HR MIN TEMP:  67; 6HR MAX TEMP:  74; 6HR PCP:  0.43;

SARANAC LAKE   CLOUDY    68  64  87 CALM      29.94S
6HR MIN TEMP:  65; 6HR MAX TEMP:  77; 6HR PCP:  0.04;

MASSENA        CLOUDY    75  65  70 N3        29.90S
6HR MIN TEMP:  75; 6HR MAX TEMP:  82;

OGDENSBURG*    CLEAR     73  66  78 CALM      29.89S
WATERTOWN      CLOUDY    77  64  64 NE8       29.88R
6HR MIN TEMP:  77; 6HR MAX TEMP:  83;

ALBANY         CLOUDY    80  65  59 CALM      29.86R
6HR MIN TEMP:  80; 6HR MAX TEMP:  91;

GLENS FALLS    MOCLDY    74  66  76 E6        29.88S
6HR MIN TEMP:  74; 6HR MAX TEMP:  86;


$$
NHZ002-005-011-290100-
_____NEW HAMPSHIRE_____


CITY           SKY/WX    TMP DP  RH WIND       PRES   REMARKS
LEBANON        MOCLDY    75  68  78 CALM      29.89R
6HR MIN TEMP:  75; 6HR MAX TEMP:  90; 6HR PCP: TRACE;

KEENE          CLOUDY    79  64  60 CALM      29.87S
6HR MIN TEMP:  79; 6HR MAX TEMP:  91;

MT WASHINGTON  PTCLDY    53  53  99 W25         N/A
6HR MIN TEMP:  53; 6HR MAX TEMP:  61; 6HR PCP: TRACE;

PLYMOUTH       FAIR      74  68  79 CALM      29.88S
6HR MIN TEMP:  74; 6HR MAX TEMP:  88;

WHITEFIELD     CLOUDY    74  66  76 CALM      29.92R
6HR MIN TEMP:  74; 6HR MAX TEMP:  83; 6HR PCP:  0.01;


$$

_____REGIONAL QUEBEC LOCATIONS_____


CITY           SKY/WX    TMP DP  RH WIND       PRES   REMARKS
MONTREAL       PTCLDY    79  59  50 W17       29.87S
QUEBEC CITY    PTCLDY    72  59  64 SW5       29.86S
SHERBROOKE     CLEAR     72  64  78 NW3       29.91R

_____REGIONAL ONTARIO LOCATIONS_____


CITY           SKY/WX    TMP DP  RH WIND       PRES   REMARKS
OTTAWA         PTCLDY    79  57  47 N5        29.90R

______KEY______
VSB  - VISIBILITY IN MILES
WCI  - WIND CHILL INDEX
HX   - HEAT INDEX
$$
NNNN




USA.gov is the U.S. government's official web portal to all federal, state and local government web resources and services.